Alamogordo, NM

1:01 PM MST on December 07, 2019 (GMT -0700)
Alamogordo-White Sands Regional

Weather History for KALM - November, 2019

Change the Weather History Date:

Tuesday, November 12, 2019

  Actual Average Record
Temperature  
Mean Temperature 40 °F -  
Max Temperature 48 °F 68 °F 84 °F (1973)
Min Temperature 32 °F 37 °F 23 °F (2018)
Degree Days  
Heating Degree Days 24    
Moisture  
Dew Point 21 °F    
Average Humidity 44    
Maximum Humidity 60    
Minimum Humidity 32    
Precipitation  
Precipitation 0.00 in - - ()
Sea Level Pressure  
Sea Level Pressure 30.39 in    
Wind  
Wind Speed 6 mph ()    
Max Wind Speed 12 mph    
Max Gust Speed -    
Visibility 10.0 miles    
Events      
Averages and records for this station are not official NWS values.
T = Trace of Precipitation, MM = Missing Value Source: Averaged Metar Reports

Daily Weather History Graph

Daily Weather History Graph

Search for Another Location

Airport or City:

Astronomy

Nov. 12, 2019 Rise Set
Actual Time 6:31 AM MST 5:04 PM MST
Civil Twilight 6:05 AM MST 5:30 PM MST
Nautical Twilight 5:35 AM MST 6:00 PM MST
Astronomical Twilight 5:06 AM MST 6:29 PM MST
Moon 5:31 PM MST (11/12) 6:28 AM MST (11/12)
Length of Visible Light 11h 25m
Length of Day
10h 33m
Full, 100% of the Moon is Illuminated
Nov 12
Full
Nov 19
Last Quarter
Nov 26
New
Dec 3
First Quarter
Dec 11
Full

Hourly Weather History & Observations

Time (MST) Temp. Windchill Dew Point Humidity Pressure Visibility Wind Dir Wind Speed Gust Speed Precip Events Conditions
12:15 AM 41.0 °F 35.2 °F 21.2 °F 45% 30.45 in 10.0 mi WSW 9.2 mph - N/A   Overcast
12:55 AM 41.0 °F 39.0 °F 23.0 °F 49% 30.45 in 10.0 mi SSE 3.5 mph - N/A   Overcast
1:15 AM 41.0 °F 38.0 °F 23.0 °F 49% 30.46 in 10.0 mi South 4.6 mph - N/A   Overcast
1:35 AM 41.0 °F 36.4 °F 24.8 °F 53% 30.46 in 10.0 mi SSE 6.9 mph - N/A   Overcast
1:55 AM 41.0 °F 36.4 °F 26.6 °F 57% 30.46 in 10.0 mi South 6.9 mph - N/A   Overcast
2:15 AM 41.0 °F 35.8 °F 24.8 °F 53% 30.46 in 10.0 mi SSE 8.1 mph - N/A   Overcast
2:35 AM 39.2 °F 33.6 °F 24.8 °F 56% 30.46 in 10.0 mi SSE 8.1 mph - N/A   Overcast
2:55 AM 39.2 °F 33.0 °F 24.8 °F 56% 30.46 in 10.0 mi SSE 9.2 mph - N/A   Overcast
3:15 AM 39.2 °F 33.0 °F 24.8 °F 56% 30.46 in 10.0 mi SSW 9.2 mph - N/A   Overcast
3:35 AM 39.2 °F 34.2 °F 23.0 °F 52% 30.46 in 10.0 mi South 6.9 mph - N/A   Overcast
3:55 AM 39.2 °F 33.6 °F 24.8 °F 56% 30.46 in 10.0 mi South 8.1 mph - N/A   Overcast
4:35 AM 39.2 °F 34.2 °F 21.2 °F 49% 30.47 in 10.0 mi SSW 6.9 mph - N/A   Overcast
4:55 AM 39.2 °F 35.0 °F 19.4 °F 45% 30.47 in 10.0 mi SSW 5.8 mph - N/A   Overcast
5:15 AM 39.2 °F 35.9 °F 17.6 °F 42% 30.47 in 10.0 mi WSW 4.6 mph - N/A   Overcast
5:35 AM 39.2 °F 35.0 °F 17.6 °F 42% 30.47 in 10.0 mi WSW 5.8 mph - N/A   Overcast
5:55 AM 39.2 °F 35.0 °F 17.6 °F 42% 30.46 in 10.0 mi West 5.8 mph - N/A   Overcast
6:15 AM 39.2 °F 35.0 °F 17.6 °F 42% 30.47 in 10.0 mi West 5.8 mph - N/A   Overcast
6:35 AM 37.4 °F 32.8 °F 17.6 °F 45% 30.47 in 10.0 mi WSW 5.8 mph - N/A   Overcast
6:55 AM 37.4 °F 32.1 °F 17.6 °F 45% 30.48 in 10.0 mi WSW 6.9 mph - N/A   Overcast
7:15 AM 37.4 °F 34.9 °F 17.6 °F 45% 30.48 in 10.0 mi WSW 3.5 mph - N/A   Overcast
7:55 AM 39.2 °F 37.0 °F 17.6 °F 42% 30.47 in 10.0 mi WNW 3.5 mph - N/A   Overcast
8:15 AM 39.2 °F 35.0 °F 17.6 °F 42% 30.47 in 10.0 mi SW 5.8 mph - N/A   Overcast
8:35 AM 41.0 °F 37.1 °F 17.6 °F 39% 30.47 in 10.0 mi West 5.8 mph - N/A   Scattered Clouds
8:55 AM 41.0 °F 36.4 °F 17.6 °F 39% 30.48 in 10.0 mi SW 6.9 mph - N/A   Partly Cloudy
9:15 AM 41.0 °F 39.0 °F 17.6 °F 39% 30.48 in 10.0 mi WSW 3.5 mph - N/A   Clear
9:55 AM 44.6 °F 40.2 °F 19.4 °F 37% 30.48 in 10.0 mi SSW 8.1 mph - N/A   Mostly Cloudy
10:35 AM 46.4 °F 42.4 °F 23.0 °F 40% 30.48 in 10.0 mi South 8.1 mph - N/A   Overcast
10:55 AM 46.4 °F 42.9 °F 21.2 °F 37% 30.47 in 10.0 mi SSW 6.9 mph - N/A   Scattered Clouds
11:15 AM 46.4 °F 41.9 °F 21.2 °F 37% 30.45 in 10.0 mi SSW 9.2 mph - N/A   Clear
11:35 AM 46.4 °F 41.5 °F 21.2 °F 37% 30.44 in 10.0 mi SSW 10.4 mph - N/A   Clear
12:15 PM 48.2 °F - 21.2 °F 34% 30.41 in 10.0 mi SE 4.6 mph - N/A   Clear
12:35 PM 46.4 °F 42.9 °F 21.2 °F 37% 30.39 in 10.0 mi South 6.9 mph - N/A   Clear
12:55 PM 48.2 °F - 21.2 °F 34% 30.39 in 10.0 mi Calm Calm - N/A   Clear
1:15 PM 48.2 °F - 21.2 °F 34% 30.38 in 10.0 mi Calm Calm - N/A   Clear
1:35 PM 48.2 °F - 19.4 °F 32% 30.36 in 10.0 mi South 4.6 mph - N/A   Clear
1:55 PM 48.2 °F - 21.2 °F 34% 30.36 in 10.0 mi SSW 9.2 mph - N/A   Clear
2:15 PM 48.2 °F - 19.4 °F 32% 30.35 in 10.0 mi SSE 3.5 mph - N/A   Clear
2:35 PM 48.2 °F - 19.4 °F 32% 30.35 in 10.0 mi SSW 8.1 mph - N/A   Clear
2:55 PM 48.2 °F - 19.4 °F 32% 30.35 in 10.0 mi SSW 10.4 mph - N/A   Clear
3:15 PM 48.2 °F - 19.4 °F 32% 30.34 in 10.0 mi South 10.4 mph - N/A   Clear
3:35 PM 48.2 °F - 19.4 °F 32% 30.33 in 10.0 mi South 9.2 mph - N/A   Clear
3:55 PM 48.2 °F - 19.4 °F 32% 30.33 in 10.0 mi South 9.2 mph - N/A   Clear
4:15 PM 46.4 °F 41.1 °F 19.4 °F 34% 30.32 in 10.0 mi SW 11.5 mph - N/A   Clear
4:35 PM 46.4 °F 42.4 °F 19.4 °F 34% 30.32 in 10.0 mi SSW 8.1 mph - N/A   Clear
4:55 PM 44.6 °F 42.2 °F 19.4 °F 37% 30.32 in 10.0 mi SSW 4.6 mph - N/A   Clear
5:15 PM 42.8 °F 41.1 °F 21.2 °F 42% 30.31 in 10.0 mi SSW 3.5 mph - N/A   Clear
5:35 PM 41.0 °F 38.0 °F 23.0 °F 49% 30.31 in 10.0 mi South 4.6 mph - N/A   Clear
5:55 PM 41.0 °F 39.0 °F 23.0 °F 49% 30.31 in 10.0 mi SSW 3.5 mph - N/A   Clear
6:15 PM 41.0 °F - 19.4 °F 42% 30.30 in 10.0 mi Calm Calm - N/A   Clear
6:35 PM 39.2 °F 37.0 °F 19.4 °F 45% 30.29 in 10.0 mi SE 3.5 mph - N/A   Clear
6:55 PM 39.2 °F 37.0 °F 19.4 °F 45% 30.30 in 10.0 mi South 3.5 mph - N/A   Clear
7:15 PM 39.2 °F 37.0 °F 19.4 °F 45% 30.29 in 10.0 mi SSE 3.5 mph - N/A   Clear
8:15 PM 39.2 °F 37.0 °F 23.0 °F 52% 30.29 in 10.0 mi South 3.5 mph - N/A   Clear
8:35 PM 35.6 °F 31.7 °F 21.2 °F 56% 30.29 in 10.0 mi ESE 4.6 mph - N/A   Clear
8:55 PM 35.6 °F 30.7 °F 23.0 °F 60% 30.29 in 10.0 mi SE 5.8 mph - N/A   Clear
9:15 PM 35.6 °F 31.7 °F 23.0 °F 60% 30.29 in 10.0 mi SSE 4.6 mph - N/A   Clear
9:35 PM 35.6 °F 29.9 °F 21.2 °F 56% 30.29 in 10.0 mi South 6.9 mph - N/A   Clear
9:55 PM 33.8 °F 29.6 °F 19.4 °F 56% 30.27 in 10.0 mi SE 4.6 mph - N/A   Clear
10:15 PM 35.6 °F 31.7 °F 19.4 °F 52% 30.27 in 10.0 mi South 4.6 mph - N/A   Clear
10:35 PM 33.8 °F - 17.6 °F 52% 30.26 in 10.0 mi Calm Calm - N/A   Clear
11:35 PM 35.6 °F 31.7 °F 19.4 °F 52% 30.25 in 10.0 mi South 4.6 mph - N/A   Clear
11:55 PM 32.0 °F 28.7 °F 19.4 °F 60% 30.24 in 10.0 mi SE 3.5 mph - N/A   Clear